Regional Weather Roundup
Issued by NWS

Home | Current Version | Previous Version | Graphics & Text | Print | Product List | Glossary Off
Versions: 1 2 3 4 5 6 7 8 9 10 11 12 13 14 15 16 17 18 19 20 21 22 23 24 25 26 27 28 29 30 31 32 33 34 35 36 37 38 39 40 41 42 43 44 45 46 47 48 49 50

000
ASUS43 KMKX 210420
RWRWI

WISCONSIN REGIONAL WEATHER ROUNDUP
NATIONAL WEATHER SERVICE MILWAUKEE/SULLIVAN WI
1000 PM CST TUE FEB 20 2018

NOTE: "FAIR" INDICATES FEW OR NO CLOUDS BELOW 12,000 FEET WITH NO
SIGNIFICANT WEATHER AND/OR OBSTRUCTIONS TO VISIBILITY.

WIZ001-002-006>008-014>016-023>028-210500-
NORTHWEST WISCONSIN

CITY           SKY/WX    TMP DP  RH WIND       PRES   REMARKS
SUPERIOR ARPT  FAIR       9   3  78 W8        30.24R WCI  -3
ASHLAND        MOCLDY    11   5  77 SW9       30.19R WCI  -2
HAYWARD        FAIR      12   6  77 CALM      30.18R
SIREN          FAIR      11   4  73 W8        30.23R WCI  -1
CUMBERLAND     FAIR      10   5  79 W12       30.20R WCI  -4
RICE LAKE      FAIR      13   8  79 W7        30.22R WCI   3
CHETEK         FAIR      14   8  77 W6        30.22R WCI   5
LADYSMITH      FAIR      15  10  79 W7        30.19R WCI   5
EAU CLAIRE     FAIR      16   9  74 W7        30.23R WCI   6
MENOMONIE      FAIR      16   9  73 W12       30.25R WCI   3
NEW RICHMOND   FAIR      12   4  69 W10       30.26R WCI  -2
OSCEOLA        FAIR      12   3  67 W13G21    30.31R WCI  -3
$$

WIZ003>005-009-010-017-018-210500-
NORTH CENTRAL WISCONSIN

CITY           SKY/WX    TMP DP  RH WIND       PRES   REMARKS
MANITOWISH WTR FLURRIES  14  12  90 W8        30.10R WCI   3
ARBOR VITAE    FLURRIES  17  13  85 NW8       30.10R WCI   6
WOODRUFF       FLURRIES  17  13  85 NW8       30.10R WCI   6
RHINELANDER    CLOUDY    16  11  80 W13       30.11R WCI   2
EAGLE RIVER    FLURRIES  15  12  85 W12G17    30.09R WCI   2
LAND O LAKES   LGT SNOW  15  11  85 W6        30.10R WCI   6
PHILLIPS       FAIR      13  11  90 CALM      30.13R
TOMAHAWK       LGT SNOW  16  12  86 NW8       30.13R WCI   5
MEDFORD        FAIR      15  10  82 W7        30.15R WCI   5
MERRILL        FLURRIES  18  12  78 NW9       30.15R WCI   6
$$

WIZ029-030-035-036-043>047-210500-
CENTRAL WISCONSIN

CITY           SKY/WX    TMP DP  RH WIND       PRES   REMARKS
WAUSAU         CLOUDY    19  15  84 W14       30.13R WCI   6
MOSINEE        CLOUDY    18  16  93 W14G20    30.15R WCI   4
MARSHFIELD     FAIR      17  12  80 NW14      30.16R WCI   3
STEVENS POINT  CLOUDY    18  15  86 W9        30.16R WCI   7
WAUPACA        CLOUDY    26  19  74 W15G22    30.16R WCI  14
WAUTOMA        CLOUDY    24  19  81 W18       30.17R WCI  10
WISC RAPIDS    CLOUDY    21  14  74 NW15      30.18R WCI   8
CAMP DOUGLAS   CLOUDY    21  18  86 NW15G22   30.19R WCI   8
$$

WIZ011>013-019>022-031-037>040-048>050-210500-
NORTHEAST WISCONSIN

CITY           SKY/WX    TMP DP  RH WIND       PRES   REMARKS
ANTIGO         CLOUDY    20  17  89 NW13      30.09R WCI   7
SHAWANO        CLOUDY    28  23  81 W6        30.12R WCI  21
OCONTO         CLOUDY    28  23  80 NW10G20   30.10R WCI  19
STURGEON BAY   CLOUDY    29  26  89 W13       30.09R WCI  19
GREEN BAY      CLOUDY    28  22  78 W12       30.12R WCI  18
MANITOWOC      CLOUDY    29  23  78 NW16      30.12R WCI  17
APPLETON       CLOUDY    27  18  69 NW17G23   30.11R WCI  14
CLINTONVILLE   CLOUDY    26  20  78 W14       30.14R WCI  14
OSHKOSH        CLOUDY    27  21  78 W13       30.13R WCI  16
$$

WIZ032>034-041-042-053>061-210500-
SOUTHWEST WISCONSIN

CITY           SKY/WX    TMP DP  RH WIND       PRES   REMARKS
LA CROSSE      CLOUDY    20  13  74 NW12      30.27R WCI   8
SPARTA         CLOUDY    20  17  85 W6        30.25R WCI  13
VIROQUA        CLOUDY    18  16  93 NW9       30.19S WCI   7
BOSCOBEL       CLOUDY    24  16  71 W10       30.23R WCI  14
PRAIRIE DU CHI FAIR      21  13  70 NW7       30.26R WCI  12
PLATTEVILLE    MOCLDY    24  20  86 NW16G22   30.19R WCI  11
$$

WIZ056-057-062-063-064-067-068-210500-
SOUTH CENTRAL WISCONSIN

CITY           SKY/WX    TMP DP  RH WIND       PRES   REMARKS
REEDSBURG      CLOUDY    23  18  83 NW16      30.19R WCI   9
BARABOO/DELLS  CLOUDY    24  18  79 NW10G20   30.17R WCI  13
LONE ROCK      CLOUDY    25  20  81 NW12      30.20R WCI  14
MINERAL POINT  MOCLDY    27  23  86 NW15      30.16R WCI  15
MADISON        CLOUDY    27  20  75 NW14G25   30.16R WCI  16
MIDDLETON      CLOUDY    28  24  82 NW15      30.17R WCI  17
WATERTOWN      CLOUDY    28  25  88 NW14      30.14R WCI  17
MONROE         CLOUDY    28  23  80 NW13G21   30.14R WCI  18
JANESVILLE     CLOUDY    32  32 100 NW17      30.14R WCI  21
$$

WIZ051-052-058>065-066-070>072-210500-
SOUTHEAST WISCONSIN

CITY           SKY/WX    TMP DP  RH WIND       PRES   REMARKS
MILWAUKEE      CLOUDY    33  28  81 NW14      30.12R WCI  23
WAUKESHA       CLOUDY    28  23  80 NW16G25   30.13R WCI  17
MILWAUKEE/TIMM CLOUDY    30  23  74 NW15      30.13R WCI  19
RACINE         CLOUDY    33  30  88 NW8       30.14R WCI  26
BURLINGTON     CLOUDY    32  27  82 NW12      30.12S WCI  23
KENOSHA        CLOUDY    34  29  82 NW13      30.12R WCI  25
FOND DU LAC    CLOUDY    28  21  75 NW13      30.14R WCI  17
SHEBOYGAN      CLOUDY    29  24  82 NW12G22   30.12R WCI  19
WEST BEND      CLOUDY    30  27  86 NW13G20   30.12R WCI  20
JUNEAU         CLOUDY    27  22  83 NW9G18    30.15R WCI  17
$$

LSZ147-162-210500-
LAKE SUPERIOR

STATION/POSITION TIME  TEMP    WIND        PRES    WAVE
                       AIR SEA DIR/SP/G            HT/PER
                 (UTC) (F)     (DEG/KT/KT) (MB)    (FT/S)
DEVILS ISLAND    0400   17     280/  9/ 12 1023.0R
SAXON HARBOR     0340   16     210/  3/  6 1021.3R
$$

LMZ867-665-643>646-210500-
LAKE MICHIGAN

STATION/POSITION TIME  TEMP    WIND        PRES    WAVE
                       AIR SEA DIR/SP/G            HT/PER
                 (UTC) (F)     (DEG/KT/KT) (MB)    (FT/S)
NORTHPORT PIER   0320   31                 1016.9
KEWAUNEE LAKESHO 0400   29     290/ 10/ 15 1018.5
SHEBOYGAN LAKESH 0400   29     290/ 16/ 20 1020.8R
PORT WASHINGTON  0340   31     300/  5/ 15 1021.0R
MILWAUKEE LAKESH 0400   32     310/ 10/ 13   N/A
KENOSHA   LAKESH 0400   34     310/  6/  8 1020.7
$$

TC  - TEMPERATURE IN CELSIUS
VSB - VISIBILITY IN STATUTE MILES
WCI - WIND CHILL INDEX
HX  - HEAT INDEX





USA.gov is the U.S. government's official web portal to all federal, state and local government web resources and services.